QZS-6 (MICHIBIKI-6) (62876 NORAD) Tracking and Keplerian Element Data

This shows tracking and keplerian element data for the satellite.

Feedback or suggestion? Click here.




ElementValue
Catalog62876
NameQZS-6 (MICHIBIKI-6)
Epoch Orbit316
Epoch Day354.14120561
Epoch Year2025
RAAN68.8068
Inclination0.0487
Eccentricity0.0001483
Argument of Perigee209.8562
Mean Anonmoly311.6926
Mean Motion1.00272536
Decay Rate-2.1E-06
L11 62876U 25023A 25354.14120561 -.00000210 00000+0 00000+0 0 9992
L22 62876 0.0487 68.8068 0001483 209.8562 311.6926 1.00272536 3168



Live tracking and technical data element details for QZS-6 (MICHIBIKI-6) (NORAD 62876). QZS-6 (MICHIBIKI-6) can be tracked NOW for your location showing map with azimuth and elevation plus other details from your city location.







IsCatalogInMostPopularTable: catalog: 62876, numindb: 574
Update: records affected: 1



GetName: 62876 QZS-6 (MICHIBIKI-6)

Hit Count: updated at: Tue, 20 Jan 2026 19:38:21 GMT